User: anonymous   Login
Location: Allos
(44.2333°N, 6.6333°E)
Time: 13:12:28
(UTC+00:00)
Language:

Cosmos 1867 - Orbit

View from above orbital plane
View from above orbital plane
View from above satellite
View from above satellite

Ground track
Ground track

The orbit data is extracted from the following two-line orbital elements,

1 18187U 87060A   21061.94648801 -.00000104  00000-0 -14584-5 0  9990
2 18187  65.0114  37.2807 0018041 281.9978  77.9084 14.31119299757632
Epoch (UTC): 02 March 2021 22:42:56
Eccentricity: 0.0018041
inclination: 65.0114°
perigee height: 775 km
apogee height: 801 km
right ascension of ascending node: 37.2807°
argument of perigee: 281.9978°
revolutions per day: 14.31119299
mean anomaly at epoch: 77.9084°
orbit number at epoch: 75763

The dashed part of the orbit path shows where the satellite is in the earth's shadow,  

DLR